Simultaneous Nadir Overpasses (SNOs) Predictions

Prediction of SNOs between GOES-16 and TERRA Satellite Orbit:

Table of predicted SNOs for the next 14.0 days since TLE Epoch: 8/26/2023
Index Date Time (GOES-16) GOES-16 Lat,Lon TERRA Lat,Lon Distance(km) Time Diff (sec)
1 08/26/2023 02:56:58 0.03, -75.21 0.42, -73.31 214.82 80
2 08/26/2023 15:14:29 -0.04, -75.22 0.60, -78.22 341.68 80
3 08/28/2023 15:00:45 -0.04, -75.22 -0.22, -74.26 108.88 80
4 08/29/2023 03:18:23 0.04, -75.21 -0.81, -79.20 452.94 80
5 08/31/2023 03:01:59 0.04, -75.23 0.03, -75.24 1.87 80
6 09/02/2023 02:45:35 0.04, -75.25 0.88, -71.28 451.24 80
7 09/02/2023 15:05:45 -0.04, -75.26 0.17, -76.18 104.39 80
8 09/04/2023 14:52:01 -0.04, -75.29 -0.71, -72.23 349.28 80
9 09/05/2023 03:12:19 0.04, -75.29 -0.38, -77.15 211.79 80
10 09/07/2023 02:53:14 0.03, -75.33 0.46, -73.19 242.44 80
11 09/07/2023 15:13:24 -0.03, -75.34 0.57, -78.09 312.91 80
